Regional Weather Roundup
Issued by NWS

Home | Current Version | Previous Version | Text Only | Print | Product List | Glossary On
Versions: 1 2 3 4 5 6 7 8 9 10 11 12 13 14 15 16 17 18 19 20 21 22 23 24 25 26 27 28 29 30 31 32 33 34 35 36 37 38 39 40 41 42 43 44 45 46 47 48 49 50
000
ASUS43 KDTX 260810
RWRMI
MICHIGAN HOURLY REGIONAL WEATHER ROUNDUP
NATIONAL WEATHER SERVICE DETROIT/PONTIAC MI
300 AM EST WED NOV 26 2014

NOTE: "FAIR" INDICATES FEW OR NO CLOUDS BELOW 12,000 FEET WITH NO
SIGNIFICANT WEATHER AND/OR OBSTRUCTION TO VISIBILITY.

MIZ047>049-052>055-059>063-066>070-074>076-081>083-260900-
SOUTHEAST LOWER MICHIGAN

CITY           SKY/WX    TMP DP  RH WIND       PRES   REMARKS
ADRIAN         CLOUDY    27  20  75 CALM      30.19R
ALMA           CLOUDY    29  21  73 W5        30.19F
ANN ARBOR      CLOUDY    28  19  69 CALM      30.17S
BAD AXE        CLOUDY    29  23  77 W3        30.19F
DETROIT CITY   CLOUDY    32  21  64 CALM      30.19S
DETROIT        CLOUDY    30  21  69 SW3       30.19S
FLINT          CLOUDY    31  21  66 CALM      30.19S
GROSSE ILE     CLOUDY    30  21  69 CALM      30.18R
HILLSDALE      CLOUDY    26  21  80 CALM      30.15S
HOWELL         CLOUDY    28  21  75 NW3       30.17S

CITY           SKY/WX    TMP DP  RH WIND       PRES   REMARKS
JACKSON        CLOUDY    27  20  75 NW5       30.17R
LAMBERTVILLE   CLOUDY    30  21  69 CALM      30.20R
LANSING        CLOUDY    28  20  71 NW3       30.19R
LAPEER         NOT AVBL
MASON          CLOUDY    28  21  75 CALM      30.18R
MONROE         CLOUDY    28  21  74 CALM      30.18R
MT. CLEMENS    CLOUDY    31  23  73 NW5       30.17S
PONTIAC        CLOUDY    29  20  69 VRB3      30.16S
PORT HOPE        N/A     31  21  66 NW5       30.18F
PORT HURON     CLOUDY    30  21  69 CALM      30.19S
TRI CITIES     CLOUDY    31  21  66 NW5       30.20S
YPSILANTI      CLOUDY    32  21  64 CALM      30.19S
$$
MIZ043>046-050>051-056>058-064>065-071>073-077>080-260900-
SOUTHWEST LOWER MICHIGAN

CITY           SKY/WX    TMP DP  RH WIND       PRES   REMARKS
BATTLE CREEK   CLOUDY    28  19  69 CALM      30.17S
BENTON HARBOR  CLOUDY    24  18  77 S5        30.19S
BIG RAPIDS     CLOUDY    27  26  96 CALM      30.16R
COLDWATER      CLOUDY    27  21  78 CALM      30.16S
HOLLAND        CLOUDY    29  22  75 S8        30.18R
GRAND RAPIDS   CLOUDY    28  22  78 S7        30.17S
KALAMAZOO      CLOUDY    27  18  69 CALM      30.17S
MARSHALL       CLOUDY    26  19  74 CALM      30.16S
MUSKEGON       CLOUDY    31  21  66 SW8       30.18R
$$
MIZ016>042-260900-
NORTHERN LOWER MICHIGAN

CITY           SKY/WX    TMP DP  RH WIND       PRES   REMARKS
ALPENA         CLOUDY    27  23  85 CALM      30.20R
BEAVER ISLAND  CLOUDY    27  22  81 CALM      30.17S
BELLAIRE       CLOUDY    27  22  82 S7        30.20R
CADILLAC       CLOUDY    24  19  81 CALM      30.14R
CHARLEVOIX     CLOUDY    27  24  87 S7        30.20R
FRANKFORT      CLOUDY    26  24  89 CALM      30.18R
GAYLORD        CLOUDY    23  17  78 SW7       30.15R
GRAYLING       CLOUDY    23  21  91 CALM      30.17S
HARBOR SPRINGS CLOUDY    27  23  87 CALM      30.17S
HOUGHTON LAKE  CLOUDY    25  17  72 SW5       30.17R
MANISTEE       CLOUDY    27  21  80 CALM      30.18S
OSCODA         CLOUDY    29  22  75 CALM      30.20S
PELLSTON       CLOUDY    25  21  85 N3        30.18S
TRAVERSE CITY  CLOUDY    27  21  78 CALM      30.18R
$$
MIZ007>008-015-260900-
EASTERN UPPER MICHIGAN

CITY           SKY/WX    TMP DP  RH WIND       PRES   REMARKS
KINROSS        CLOUDY    19  18  93 CALM      30.18R
MACKINAC ISLAN CLOUDY    26  20  79 CALM      30.18S
NEWBERRY       PTCLDY     4   2  94 CALM      30.17R
S. S. MARIE    CLOUDY    23  16  74 W5        30.19S
$$
MIZ004>006-011>014-085-260900-
CENTRAL UPPER MICHIGAN

CITY           SKY/WX    TMP DP  RH WIND       PRES   REMARKS
MANISTIQUE     CLOUDY    15  14  94 CALM      30.17R
ESCANABA       PTCLDY    12   7  79 W5        30.17R
MENOMINEE      CLOUDY    16  12  86 CALM      30.18S
SAWYER-GWINN   PTCLDY    -4  -8  81 CALM      30.11S
$$
MIZ001>003-009>011-084-260900-
WESTERN UPPER MICHIGAN

CITY           SKY/WX    TMP DP  RH WIND       PRES   REMARKS
IRON MOUNTAIN  CLEAR     -4  -9  79 CALM      30.12R
HOUGHTON       CLOUDY    14   9  80 CALM      30.08S
COPPER HARBOR    N/A     24  14  65 SW7       30.11R
IRONWOOD       CLOUDY     7   7 100 CALM      30.07R
$$

ABBREVIATIONS USED IN REMARKS
   TC - TEMPERATURE IN CELSIUS
  WCI - WIND CHILL INDEX
   HX - HEAT INDEX
  VSB - VISIBILITY




USA.gov is the U.S. government's official web portal to all federal, state and local government web resources and services.